{"data":{"norad_id":58840,"epoch":"2026-09-20T20:51:01.747008Z","epoch_age_seconds":120622,"freshness":"FRESH","line1":"1 58840U 24017Q   26263.86877022 -.00009833  00000+0 -27985-3 0  9996","line2":"2 58840  53.1620  25.9129 0000974 108.9096 251.2012 15.34445707149934","mean_motion":15.34445707,"eccentricity":9.74e-5,"inclination_deg":53.162,"raan_deg":25.9129,"arg_perigee_deg":108.9096,"mean_anomaly_deg":251.2012,"bstar":-0.00027985,"rev_number":14993,"period_min":93.844962609681,"perigee_km":461.90110813514,"apogee_km":463.23367735085,"semimajor_km":6840.704392743,"source":"CELESTRAK","updated_at":"2026-09-21T09:00:33.985223Z"}}